Flag for Russia Weather past 2 weeks in Yuzhno-Sakhalinsk, Russia

Now
12 °F

Passing clouds.


Feels Like: -3 °F
Forecast: 11 / 18 °F
Wind: 13 mph from North

Location: Yuzhno Airport-Sakhalinsk

Current Time: Feb 2, 2015 at 5:02:57 AM

Latest Report: Feb 2, 2015 at 4:00 AM


Visibility: N/A

Pressure: 29.98 "Hg

Humidity: 73%

Dew point: 5 °F

Location of Yuzhno-SakhalinskLocation

Historic Weather in Yuzhno-Sakhalinsk — Graph

°F

Yuzhno-Sakhalinsk temperature yesterday

Maximum temperature yesterday: 19 °F (at 3:00 PM)
Minimum temperature yesterday: 14 °F (at 12:00 AM)
Average temperature yesterday: 17 °F

Past Weeks' High & Low Weather Summary

 TemperatureHumidityPressure
High36 °F (Jan 27, 10:30 AM)100% (Jan 22, 9:00 AM)30.36 "Hg (Jan 22, 9:00 AM)
Low-18 °F (Jan 19, 6:00 AM)50% (Jan 25, 3:00 PM)29.53 "Hg (Jan 27, 10:00 AM)
Average14 °F81%30.00 "Hg
* Reported Jan 18 4:00 AM — Feb 2 4:00 AM, Yuzhno-Sakhalinsk, Weather by CustomWeather, © 2014

Note: Actual official high and low records may vary slightly from our data, if they occured in-between our weather recording intervals... More about our weather records

Advertising

Yuzhno-Sakhalinsk weather history for previous 24 hours

 ConditionsComfort  
Time TempWeatherWind HumidityBarometerVisibility
4:00 AM
Feb 2
12 °FPassing clouds.13 mph73%29.98 "HgN/A
3:00 AM12 °FPassing clouds.10 mph73%29.98 "HgN/A
2:00 AM14 °FPassing clouds.15 mph73%29.98 "HgN/A
1:00 AM14 °FPassing clouds.15 mph73%29.98 "HgN/A
12:00 AM14 °FPassing clouds.15 mph79%29.98 "HgN/A
11:00 PM
Feb 1
18 °FPassing clouds.13 mph62%29.98 "HgN/A
10:00 PM18 °FPassing clouds.15 mph68%30.01 "HgN/A
9:00 PM18 °FPassing clouds.17 mph68%30.01 "HgN/A
8:30 PM19 °FPassing clouds.15 mph58%30.01 "HgN/A
8:00 PM19 °FPassing clouds.17 mph63%30.01 "HgN/A
7:30 PM19 °FPassing clouds.17 mph63%30.01 "HgN/A
7:00 PM19 °FPassing clouds.22 mph63%29.98 "HgN/A
6:30 PM19 °FPassing clouds.24 mph63%29.98 "HgN/A
6:00 PM19 °FPassing clouds.22 mph63%29.98 "HgN/A
5:30 PM19 °FPassing clouds.24 mph63%29.98 "HgN/A
5:00 PM19 °FScattered clouds.17 mph63%29.98 "HgN/A
4:30 PM19 °FScattered clouds.17 mph58%29.98 "HgN/A
4:00 PM19 °FSnow flurries. Scattered clouds.22 mph58%29.98 "Hg5 mi
3:30 PM19 °FSnow flurries. Partly sunny.22 mph63%29.98 "Hg4 mi
3:00 PM19 °FSnow flurries. Partly sunny.22 mph63%29.98 "Hg3 mi
2:30 PM18 °FSnow flurries. Broken clouds.17 mph73%29.98 "Hg3 mi
2:00 PM18 °FSnow showers. Ice fog.26 mph79%29.98 "Hg1 mi
1:30 PM18 °FSnow showers. Ice fog.26 mph79%29.98 "Hg1 mi
1:00 PM16 °FSnow showers. Ice fog.22 mph93%30.01 "Hg1 mi
12:30 PM16 °FBlizzard. Ice fog.29 mph93%29.98 "Hg1 mi
12:00 PM16 °FSnow showers. Partly sunny.29 mph93%29.98 "Hg1 mi
11:30 AM16 °FSnow showers. Partly sunny.26 mph93%30.01 "Hg1 mi
11:00 AM16 °FBlizzard. Ice fog.29 mph86%30.01 "Hg1 mi
10:30 AM16 °FBlizzard. Ice fog.31 mph93%30.01 "Hg1 mi
10:00 AM16 °FSnow showers. Partly sunny.29 mph93%30.01 "Hg1 mi
9:30 AM16 °FSnow showers. Partly sunny.29 mph86%30.01 "Hg1 mi
9:00 AM16 °FBlizzard. Ice fog.22 mph86%30.01 "Hg1 mi
8:30 AM16 °FSnow showers. Ice fog.22 mph86%30.01 "Hg1 mi
8:00 AM16 °FBlizzard. Ice fog.26 mph86%30.01 "Hg1 mi
7:30 AM16 °FSnow showers. Ice fog.31 mph86%30.01 "Hg1 mi
6:30 AM14 °FSnow showers. Ice fog.31 mph92%29.98 "Hg1 mi
6:00 AM14 °FSnow showers. Passing clouds.31 mph85%29.98 "Hg2 mi
5:00 AM14 °FSnow showers. Passing clouds.31 mph85%30.01 "Hg2 mi
Weather by CustomWeather, © 2014

See weather overviewHow to use our weather pages